• En España
  • Lista de países
  • Para 7 días
  • Temperatura del agua
  • Mapa Satelital
  • El tiempo en el mapa
  • Informadores
  • user-avatar
    Iniciar sesión

    Tiempo cada hora Barra

    Hoy, 25 Noviembre, Sábado

    Tiempo Temperatura Precipitaciones Viento Presión Humedad
    00:00 +24°C° 0 mm 2 mps 748 mmHg 92%
    01:00 +24°C° 0 mm 2 mps 748 mmHg 93%
    02:00 +24°C° 0,1 mm 2 mps 748 mmHg 93%
    03:00 +24°C° 0,1 mm 2 mps 747 mmHg 93%
    04:00 +24°C° 0 mm 2 mps 747 mmHg 94%
    05:00 +25°C° 0 mm 2 mps 747 mmHg 91%
    06:00 +25°C° 0 mm 2 mps 748 mmHg 87%
    07:00 +26°C° 0 mm 2 mps 748 mmHg 84%
    08:00 +28°C° 0 mm 2 mps 748 mmHg 74%
    09:00 +30°C° 0 mm 3 mps 748 mmHg 64%
    10:00 +33°C° 0 mm 3 mps 748 mmHg 56%
    11:00 +33°C° 0 mm 3 mps 748 mmHg 53%
    12:00 +34°C° 0 mm 3 mps 747 mmHg 50%
    13:00 +35°C° 0 mm 4 mps 747 mmHg 48%
    14:00 +34°C° 0 mm 3 mps 747 mmHg 49%
    15:00 +34°C° 0 mm 3 mps 746 mmHg 50%
    16:00 +33°C° 0 mm 3 mps 746 mmHg 51%
    17:00 +30°C° 0 mm 3 mps 746 mmHg 60%
    18:00 +28°C° 0 mm 2 mps 746 mmHg 68%
    19:00 +26°C° 0 mm 2 mps 747 mmHg 76%
    20:00 +26°C° 0 mm 2 mps 747 mmHg 80%
    21:00 +25°C° 0 mm 2 mps 747 mmHg 84%
    22:00 +25°C° 0 mm 2 mps 748 mmHg 88%
    23:00 +24°C° 0 mm 2 mps 748 mmHg 89%

    Mañana, 26 Noviembre, Domingo

    Tiempo Temperatura Precipitaciones Viento Presión Humedad
    00:00 +24°C° 0 mm 2 mps 747 mmHg 91%
    01:00 +24°C° 0 mm 2 mps 747 mmHg 93%
    02:00 +24°C° 0 mm 2 mps 747 mmHg 93%
    03:00 +24°C° 0 mm 2 mps 747 mmHg 94%
    04:00 +24°C° 0 mm 2 mps 746 mmHg 94%
    05:00 +25°C° 0 mm 2 mps 747 mmHg 90%
    06:00 +25°C° 0 mm 2 mps 747 mmHg 86%
    07:00 +26°C° 0 mm 2 mps 747 mmHg 81%
    08:00 +28°C° 0 mm 2 mps 748 mmHg 71%
    09:00 +30°C° 0 mm 3 mps 748 mmHg 60%
    10:00 +33°C° 0 mm 3 mps 748 mmHg 50%
    11:00 +34°C° 0 mm 3 mps 747 mmHg 47%
    12:00 +34°C° 0 mm 4 mps 747 mmHg 43%
    13:00 +35°C° 0 mm 4 mps 746 mmHg 40%
    14:00 +34°C° 0 mm 4 mps 746 mmHg 42%
    15:00 +34°C° 0 mm 3 mps 745 mmHg 44%
    16:00 +33°C° 0 mm 3 mps 745 mmHg 47%
    17:00 +30°C° 0 mm 3 mps 745 mmHg 56%
    18:00 +28°C° 0 mm 2 mps 746 mmHg 65%
    19:00 +26°C° 0 mm 2 mps 746 mmHg 73%
    20:00 +26°C° 0 mm 2 mps 746 mmHg 78%
    21:00 +25°C° 0 mm 2 mps 747 mmHg 82%
    22:00 +25°C° 0 mm 2 mps 747 mmHg 86%
    23:00 +24°C° 0 mm 2 mps 747 mmHg 87%

    Pasado mañana, 27 Noviembre, Lunes

    Tiempo Temperatura Precipitaciones Viento Presión Humedad
    00:00 +24°C° 0 mm 2 mps 746 mmHg 89%
    01:00 +24°C° 0 mm 2 mps 746 mmHg 91%
    02:00 +24°C° 0 mm 2 mps 746 mmHg 91%
    03:00 +24°C° 0 mm 2 mps 746 mmHg 92%
    04:00 +24°C° 0 mm 2 mps 745 mmHg 92%
    05:00 +25°C° 0 mm 2 mps 746 mmHg 88%
    06:00 +25°C° 0 mm 2 mps 746 mmHg 84%
    07:00 +26°C° 0 mm 2 mps 746 mmHg 80%
    08:00 +28°C° 0 mm 3 mps 747 mmHg 70%
    09:00 +30°C° 0 mm 3 mps 747 mmHg 60%
    10:00 +33°C° 0 mm 3 mps 747 mmHg 50%
    11:00 +33°C° 0 mm 4 mps 746 mmHg 47%
    12:00 +34°C° 0 mm 4 mps 746 mmHg 44%
    13:00 +35°C° 0 mm 4 mps 745 mmHg 41%
    14:00 +34°C° 0 mm 4 mps 745 mmHg 43%
    15:00 +34°C° 0 mm 4 mps 745 mmHg 44%
    16:00 +33°C° 0 mm 4 mps 744 mmHg 46%
    17:00 +30°C° 0 mm 3 mps 745 mmHg 56%
    18:00 +28°C° 0 mm 3 mps 745 mmHg 66%
    19:00 +26°C° 0 mm 2 mps 746 mmHg 76%
    20:00 +25°C° 0 mm 2 mps 746 mmHg 81%
    21:00 +25°C° 0 mm 2 mps 747 mmHg 85%
    22:00 +24°C° 0 mm 2 mps 747 mmHg 90%
    23:00 +24°C° 0,1 mm 2 mps 746 mmHg 91%

    28 Noviembre, Martes

    Tiempo Temperatura Precipitaciones Viento Presión Humedad
    00:00 +25°C° 0,1 mm 3 mps 746 mmHg 91%
    01:00 +25°C° 0,1 mm 3 mps 745 mmHg 91%
    02:00 +25°C° 0,1 mm 3 mps 745 mmHg 91%
    03:00 +25°C° 0,1 mm 3 mps 745 mmHg 92%
    04:00 +25°C° 0,1 mm 3 mps 745 mmHg 92%
    05:00 +25°C° 0,1 mm 3 mps 746 mmHg 90%
    06:00 +25°C° 0,1 mm 3 mps 746 mmHg 88%
    07:00 +26°C° 0,1 mm 3 mps 747 mmHg 86%
    08:00 +27°C° 0,2 mm 3 mps 747 mmHg 79%
    09:00 +29°C° 0,2 mm 3 mps 747 mmHg 71%
    10:00 +30°C° 0,2 mm 3 mps 747 mmHg 63%
    11:00 +32°C° 0,2 mm 4 mps 747 mmHg 59%
    12:00 +33°C° 0,2 mm 4 mps 746 mmHg 56%
    13:00 +33°C° 0,2 mm 4 mps 746 mmHg 52%
    14:00 +33°C° 0 mm 4 mps 745 mmHg 53%
    15:00 +33°C° 0 mm 3 mps 745 mmHg 55%
    16:00 +31°C° 0 mm 3 mps 745 mmHg 56%
    17:00 +30°C° 0,1 mm 3 mps 745 mmHg 64%
    18:00 +28°C° 0,1 mm 3 mps 746 mmHg 72%
    19:00 +26°C° 0,1 mm 3 mps 747 mmHg 80%
    20:00 +26°C° 0,2 mm 2 mps 747 mmHg 84%
    21:00 +25°C° 0,2 mm 2 mps 748 mmHg 88%
    22:00 +25°C° 0,2 mm 2 mps 748 mmHg 93%
    23:00 +25°C° 0,2 mm 2 mps 748 mmHg 93%

    29 Noviembre, Miércoles

    Tiempo Temperatura Precipitaciones Viento Presión Humedad
    00:00 +24°C° 0,2 mm 2 mps 747 mmHg 94%
    01:00 +24°C° 0,2 mm 2 mps 747 mmHg 94%
    02:00 +24°C° 0,2 mm 2 mps 747 mmHg 94%
    03:00 +24°C° 0,2 mm 2 mps 746 mmHg 94%
    04:00 +24°C° 0,2 mm 2 mps 746 mmHg 93%
    05:00 +25°C° 0,2 mm 2 mps 747 mmHg 90%
    06:00 +26°C° 0,2 mm 2 mps 747 mmHg 87%
    07:00 +26°C° 0,2 mm 3 mps 747 mmHg 84%
    08:00 +28°C° 0,4 mm 3 mps 747 mmHg 75%
    09:00 +30°C° 0,4 mm 3 mps 748 mmHg 66%
    10:00 +33°C° 0,4 mm 3 mps 748 mmHg 57%
    11:00 +33°C° 0,3 mm 3 mps 747 mmHg 55%
    12:00 +34°C° 0,3 mm 3 mps 747 mmHg 52%
    13:00 +35°C° 0,3 mm 3 mps 746 mmHg 50%
    14:00 +34°C° 0 mm 4 mps 746 mmHg 52%
    15:00 +33°C° 0 mm 4 mps 745 mmHg 54%
    16:00 +33°C° 0 mm 4 mps 745 mmHg 56%
    17:00 +30°C° 0,1 mm 3 mps 746 mmHg 64%
    18:00 +29°C° 0,1 mm 3 mps 746 mmHg 73%
    19:00 +27°C° 0,1 mm 2 mps 747 mmHg 81%
    20:00 +26°C° 0,3 mm 2 mps 747 mmHg 85%
    21:00 +26°C° 0,3 mm 2 mps 747 mmHg 89%
    22:00 +25°C° 0,3 mm 2 mps 748 mmHg 93%
    23:00 +25°C° 0,3 mm 2 mps 747 mmHg 93%

    30 Noviembre, Jueves

    Tiempo Temperatura Precipitaciones Viento Presión Humedad
    00:00 +25°C° 0,3 mm 2 mps 747 mmHg 93%
    01:00 +25°C° 0,3 mm 2 mps 746 mmHg 93%
    02:00 +25°C° 0,2 mm 2 mps 746 mmHg 94%
    03:00 +25°C° 0,2 mm 2 mps 746 mmHg 94%
    04:00 +25°C° 0,2 mm 2 mps 746 mmHg 95%
    05:00 +25°C° 0,1 mm 3 mps 746 mmHg 91%
    06:00 +26°C° 0,1 mm 3 mps 747 mmHg 88%
    07:00 +26°C° 0,1 mm 3 mps 747 mmHg 84%
    08:00 +28°C° 0,2 mm 3 mps 747 mmHg 77%
    09:00 +30°C° 0,2 mm 3 mps 747 mmHg 70%
    10:00 +31°C° 0,2 mm 3 mps 747 mmHg 62%
    11:00 +33°C° 0 mm 3 mps 746 mmHg 59%
    12:00 +34°C° 0 mm 3 mps 746 mmHg 56%
    13:00 +35°C° 0 mm 4 mps 745 mmHg 53%
    14:00 +34°C° 0 mm 4 mps 745 mmHg 55%
    15:00 +33°C° 0 mm 3 mps 745 mmHg 57%
    16:00 +33°C° 0 mm 3 mps 744 mmHg 60%
    17:00 +30°C° 0,2 mm 3 mps 745 mmHg 67%
    18:00 +29°C° 0,2 mm 3 mps 745 mmHg 75%
    19:00 +27°C° 0,2 mm 3 mps 746 mmHg 83%
    20:00 +27°C° 0,2 mm 3 mps 746 mmHg 86%
    21:00 +26°C° 0,2 mm 3 mps 747 mmHg 89%
    22:00 +26°C° 0,2 mm 3 mps 747 mmHg 92%
    23:00 +26°C° 0,2 mm 2 mps 747 mmHg 92%
    Mostrar más